Temperature
11 11 12 13 16 17 18 20 21 21 22 21 21 22 23 23 23 22 18 17 16 16 15 16 16 16 16 16 16 16 16 16 16 16 16 16 16 16 16 16 16 17 17 17 17 17 17 17 17
10 11 12 13 16 16 18 20 20 20 21 20 20 20 21 21 20 18 17 16 16 15 15 15 16 16 16 16 16 16 16 16 16 16 16 16 16 16 16 16 17 17 17 17 17 17 17 17 17
10 10 12 14 15 17 18 20 20 20 20 19 20 20 20 20 18 17 17 16 16 15 15 15 16 16 16 16 16 16 16 16 16 16 16 16 16 16 16 16 17 17 17 17 17 17 17 17 17
10 10 12 13 15 17 18 20 20 20 19 19 19 19 18 18 17 17 17 16 15 15 15 15 16 16 16 16 16 16 16 15 16 16 16 16 16 16 16 17 17 17 17 17 17 17 17 17 17
9 11 12 13 14 17 18 19 19 19 20 19 19 19 18 17 17 17 17 16 15 15 15 15 15 15 15 16 16 16 16 15 15 16 16 16 16 16 16 17 17 17 17 17 17 17 17 17 17
10 11 12 13 15 16 18 17 17 19 19 19 18 19 18 16 16 16 16 16 15 15 15 15 15 15 15 15 15 16 15 15 15 16 16 16 16 16 17 17 17 17 17 17 17 17 17 17 17
10 11 12 14 15 16 17 17 17 18 19 18 18 18 18 16 16 16 16 16 15 15 15 15 15 15 15 15 15 15 15 15 15 15 16 16 16 16 17 17 17 17 17 17 17 17 17 16 16
9 11 12 13 14 15 17 16 16 17 18 17 17 18 17 15 15 16 15 15 15 15 15 15 14 14 15 15 15 15 15 15 15 15 16 16 16 16 16 17 17 17 17 17 17 17 17 16 16
9 10 11 12 13 15 16 16 16 16 16 16 16 17 16 15 15 15 15 15 15 15 15 14 14 14 14 14 14 15 15 15 15 15 15 15 16 16 16 16 17 17 17 17 17 17 16 16 16
9 9 11 13 14 14 14 15 15 15 16 16 16 15 15 14 15 14 14 15 15 14 14 14 14 14 14 14 14 14 14 15 15 15 15 15 15 15 16 16 16 16 16 16 16 16 16 16 15
10 10 11 12 12 12 13 13 14 15 15 16 15 15 14 14 14 14 14 14 15 14 14 14 14 14 14 14 14 14 14 14 14 15 15 15 15 16 16 16 16 16 16 16 16 16 16 15 15
9 10 10 11 10 11 12 12 13 14 14 15 14 14 14 13 14 14 14 14 14 14 14 14 14 14 14 14 14 14 14 15 15 15 15 15 15 15 16 16 16 16 16 16 15 15 15 15 15
9 10 10 10 10 10 10 11 12 13 13 13 13 13 13 13 13 14 14 14 14 14 14 14 14 14 14 14 15 15 15 15 15 15 15 15 15 15 15 15 16 15 15 15 15 15 14 14 14
9 9 9 9 9 10 10 11 12 12 12 12 13 13 13 13 13 13 13 14 13 13 13 14 14 14 14 14 15 14 15 15 15 15 15 15 15 15 15 15 15 15 15 15 15 14 14 14 14
8 8 9 9 9 10 10 10 12 12 12 12 12 12 13 13 13 13 13 13 13 13 13 13 14 14 14 14 14 14 15 15 15 15 15 15 15 15 15 15 15 15 15 15 14 14 14 14 14
8 8 9 10 10 10 10 10 12 12 11 12 12 12 12 12 12 13 13 13 13 13 13 13 13 14 14 14 14 14 14 14 15 15 15 15 15 15 15 15 15 14 14 14 14 14 13 13 13
8 8 9 10 10 10 10 10 12 11 11 12 12 12 12 12 12 12 13 12 12 13 13 13 13 13 14 14 14 14 14 14 14 14 14 15 15 14 14 14 14 14 14 14 14 13 13 13 13
8 8 9 9 10 10 10 10 11 11 11 12 12 12 12 12 12 12 12 12 12 12 13 13 13 13 13 13 13 14 14 14 14 14 14 14 14 14 14 14 14 14 13 13 13 13 13 13 13
7 8 8 9 10 9 10 10 11 12 12 12 12 12 12 12 12 12 12 12 12 12 12 13 13 13 13 13 13 13 13 14 14 14 14 14 14 14 14 14 14 13 13 13 13 13 13 13 13
7 7 8 9 9 9 10 10 11 12 12 12 12 12 12 12 12 12 12 12 12 12 12 12 13 13 13 13 13 13 14 14 14 14 14 13 14 13 13 13 13 13 13 13 13 13 13 13 13
7 7 8 8 9 9 10 10 11 12 12 11 12 12 12 12 12 12 12 12 12 12 12 12 12 12 12 13 13 13 13 13 13 13 13 13 13 13 13 13 13 13 13 13 13 13 13 12 13
7 8 8 8 8 9 10 10 11 12 12 12 12 12 12 12 12 12 12 12 12 12 12 12 12 12 12 13 13 13 13 13 13 13 13 13 13 13 13 13 13 13 13 13 13 12 12 12 12
8 8 8 8 8 9 10 10 12 12 12 12 12 12 12 11 12 12 12 12 13 12 12 12 12 12 12 12 13 13 13 13 13 13 13 13 13 13 13 13 13 13 13 13 12 12 12 12 12
8 8 8 8 9 9 10 11 11 12 12 12 12 12 11 11 11 11 12 12 12 13 12 12 13 13 13 12 12 12 12 12 12 12 13 13 13 13 13 13 13 12 12 12 12 12 12 12 12
7 8 8 8 9 9 10 10 11 11 11 11 11 11 10 10 11 11 11 11 12 12 13 13 13 13 13 13 13 13 13 12 12 12 12 12 12 12 12 12 12 12 12 12 12 12 12 12 12
8 8 9 10 10 10 9 10 11 10 10 9 9 9 9 9 9 10 10 11 12 12 12 13 13 13 13 13 13 13 13 13 12 12 12 12 12 12 12 12 12 11 11 12 11 11 11 11 11
8 8 9 10 10 10 10 10 11 11 10 9 9 9 8 8 8 9 10 11 11 11 12 12 12 12 13 13 13 13 12 12 12 12 12 12 12 12 12 12 11 11 11 11 11 11 11 11 11
8 9 9 9 10 11 10 10 10 9 9 9 9 8 7 7 7 8 9 10 10 11 11 11 12 12 12 12 12 12 12 12 12 12 12 12 12 12 11 11 11 11 11 11 11 11 11 11 11
8 9 9 10 10 11 11 10 9 8 8 8 7 6 6 6 6 7 8 9 9 10 10 11 11 11 12 12 12 12 12 12 12 12 11 11 11 11 11 11 11 11 11 10 10 11 11 10 10
8 9 9 10 9 10 11 10 8 8 8 7 7 6 5 5 6 7 7 8 9 9 10 10 10 11 11 11 11 11 11 11 11 11 11 11 11 11 10 10 10 10 10 10 10 10 10 10 10
Wind_Speed
7 5 3 4 8 14 29 26 20 18 17 13 9 8 9 9 6 2 3 10 16 20 23 24 23 21 19 17 16 14 12 14 17 18 20 20 20 21 20 20 21 20 20 19 18 17 16 16 15
5 3 4 6 14 23 27 26 21 19 15 9 9 8 7 7 1 2 4 11 17 20 22 23 23 21 20 18 16 14 12 14 17 19 20 21 21 21 21 21 21 20 19 19 17 16 15 15 14
5 4 6 8 20 28 27 21 21 19 13 10 9 7 7 5 3 3 6 15 18 19 20 22 23 22 20 18 16 14 13 14 17 19 21 21 21 21 21 20 20 20 19 18 16 15 14 14 13
4 5 7 13 27 29 26 19 15 19 17 12 10 7 5 2 3 4 11 16 19 18 19 22 22 21 20 18 17 15 14 14 16 19 20 21 21 21 21 20 20 19 18 17 16 15 14 13 13
4 6 13 20 28 26 23 20 16 16 17 14 12 12 8 3 3 9 15 17 18 18 18 22 22 21 20 19 17 16 15 15 16 19 20 20 20 20 20 19 19 18 17 16 15 14 13 13 12
5 7 14 23 27 25 23 20 19 20 18 14 12 13 10 5 8 12 15 15 16 16 17 20 21 20 20 19 17 16 15 15 16 19 19 19 19 19 19 19 18 17 16 15 14 13 13 12 11
7 10 19 24 24 25 23 20 21 21 21 17 11 12 8 7 9 12 14 14 14 14 15 17 20 20 19 19 18 17 16 15 16 17 18 18 18 18 18 17 17 16 15 14 13 13 12 11 10
7 7 17 21 24 24 21 20 21 21 21 15 11 11 9 8 10 11 12 12 11 11 13 15 18 19 19 19 18 17 17 16 16 16 17 18 17 16 16 16 15 15 14 13 12 11 11 10 9
6 9 17 20 20 20 17 18 19 17 17 15 13 12 7 8 11 12 11 11 11 11 12 14 15 16 17 18 18 18 17 16 17 16 18 17 15 15 14 13 13 13 12 12 11 10 10 9 8
8 13 20 16 15 15 14 16 16 15 18 17 15 11 6 10 13 14 15 15 14 13 12 13 15 15 16 16 17 16 15 16 14 15 16 13 12 11 11 13 12 11 11 10 9 9 9 7 6
8 14 15 14 14 12 13 14 14 16 19 18 16 12 8 12 14 15 15 15 16 14 13 12 14 14 14 13 14 12 12 13 13 15 14 12 11 10 10 10 11 10 10 9 9 8 6 5 4
10 14 14 13 11 11 13 12 14 17 18 13 12 9 8 12 15 16 15 14 13 14 14 13 13 13 13 13 12 12 11 11 11 13 14 12 9 8 9 8 8 8 7 7 7 6 6 5 5
14 13 13 14 13 13 14 15 15 16 14 10 10 9 10 12 13 12 13 14 14 14 14 13 13 14 13 12 10 10 11 11 12 12 13 12 9 8 8 7 7 8 7 7 6 6 6 5 4
8 11 12 12 13 12 14 16 15 15 11 10 10 11 11 12 11 10 12 13 14 16 15 13 13 14 13 12 11 10 11 11 12 12 13 13 10 9 8 7 7 7 7 7 6 6 5 4 4
7 10 13 12 12 10 10 15 18 14 11 12 12 12 11 11 9 10 10 11 12 13 13 13 13 13 14 13 12 10 11 12 10 11 13 13 12 11 9 7 7 7 7 7 6 6 5 4 4
6 7 9 8 9 10 11 15 12 9 10 12 12 11 12 10 10 9 9 9 8 9 11 11 10 12 13 11 11 8 10 11 10 11 12 14 13 12 9 7 7 8 7 6 5 5 5 5 4
6 7 10 7 7 7 11 11 8 7 9 11 11 12 12 11 9 7 7 8 8 9 11 11 10 10 11 11 9 9 8 9 10 11 11 13 13 13 10 8 7 9 7 6 5 6 5 5 4
5 7 8 7 3 6 10 11 9 9 10 11 11 11 11 11 9 8 7 7 7 8 9 11 11 10 10 9 8 7 7 8 8 9 10 12 12 13 11 8 9 9 7 7 7 7 5 4 3
6 7 8 7 5 5 9 11 11 10 10 11 10 10 10 10 8 7 7 6 6 7 9 11 12 11 10 9 9 8 9 8 7 7 10 12 12 13 11 8 8 8 8 8 8 7 6 5 3
8 7 7 5 4 5 7 10 9 10 11 9 9 9 9 8 7 7 7 7 7 8 9 10 11 11 12 10 8 7 6 6 7 6 8 11 12 12 11 10 9 8 8 8 8 7 6 4 4
9 9 7 5 3 5 6 6 8 8 8 7 7 8 8 9 9 8 7 7 7 8 9 9 10 10 11 10 7 5 4 4 5 7 7 9 11 12 11 11 9 9 8 8 9 8 8 6 5
6 7 7 7 5 3 4 2 3 5 6 6 7 7 7 7 7 7 6 6 7 7 7 9 10 10 10 10 9 10 8 7 7 6 6 6 8 10 10 10 10 9 8 8 8 7 6 6 5
4 3 5 5 4 2 3 3 1 2 4 5 6 6 6 6 6 5 5 5 5 5 6 8 9 9 9 9 10 10 9 7 5 5 7 7 6 7 8 8 7 7 7 7 7 7 7 5 5
2 3 3 2 2 2 3 3 1 1 3 4 4 4 5 4 4 3 3 3 3 3 4 5 7 8 9 9 10 11 11 9 8 8 8 6 5 5 7 7 6 6 6 7 7 6 7 6 6
3 3 2 3 2 1 1 1 2 6 6 5 3 1 2 2 3 3 3 3 3 3 3 4 6 6 7 8 8 9 10 10 10 9 9 8 6 5 7 7 7 6 6 7 6 6 6 7 7
3 2 1 1 3 2 1 0 3 7 7 5 3 3 4 5 4 5 4 3 3 2 2 2 4 5 5 6 6 6 8 8 8 9 8 9 7 7 8 8 8 8 8 8 7 6 6 5 6
2 1 2 1 1 2 2 1 2 8 10 9 8 7 7 6 6 6 6 6 5 4 3 2 3 3 4 4 4 5 6 6 7 7 7 7 7 7 9 9 9 9 9 9 8 7 7 6 6
0 1 2 0 1 2 2 2 3 8 9 8 8 9 9 8 8 8 7 7 6 5 4 4 3 3 3 3 3 2 3 4 5 6 7 7 7 8 9 10 10 9 9 9 8 7 7 7 6
1 0 1 1 2 1 3 3 5 5 5 6 7 8 9 9 9 9 8 8 7 7 6 6 5 4 3 2 2 2 2 3 4 5 6 7 7 9 10 10 10 10 10 9 8 7 8 7 6
2 2 2 1 2 2 2 3 6 4 4 6 8 9 9 10 9 9 9 9 9 8 8 7 6 5 4 3 2 1 1 2 3 4 5 6 7 8 9 10 10 10 10 9 9 8 8 8 8
Wind_Direction
288 292 269 216 217 227 234 231 232 229 224 223 222 219 222 217 221 234 75 163 160 160 159 158 157 155 154 151 149 150 155 159 158 156 153 149 144 140 136 134 131 129 126 123 119 115 112 109 106
286 265 221 216 224 228 232 226 223 226 222 213 216 220 221 218 232 89 134 159 160 160 160 161 156 156 154 151 150 150 152 156 155 153 151 148 143 140 137 135 133 130 126 123 119 116 114 113 111
266 232 221 220 229 231 232 224 227 226 228 222 220 226 233 218 176 154 155 161 159 160 162 156 156 156 155 153 152 150 148 150 150 148 148 146 143 140 137 135 133 130 126 123 121 118 116 116 116
231 204 224 230 233 233 237 233 227 229 229 230 229 225 221 215 165 152 151 160 160 161 161 155 157 157 156 154 153 152 148 148 148 146 145 143 141 139 136 134 133 131 129 127 123 119 117 118 117
217 220 224 233 237 237 236 238 232 231 228 225 226 233 226 183 148 151 154 161 161 162 161 158 158 158 158 156 155 153 148 148 148 145 143 141 138 137 136 135 135 134 133 130 126 122 120 119 119
212 221 229 234 237 236 235 232 239 239 236 234 235 238 238 169 158 155 155 160 161 163 162 160 160 159 159 158 156 154 151 149 146 144 142 140 138 138 138 138 138 139 136 132 129 126 123 120 120
228 225 238 240 242 238 233 230 235 238 237 234 234 240 227 180 171 158 157 159 162 163 165 163 165 164 161 159 156 155 152 150 147 143 139 137 138 139 141 141 142 141 138 134 131 128 126 124 122
236 237 242 240 242 242 236 233 235 239 240 239 234 236 223 190 174 163 161 161 161 165 172 169 168 169 168 164 159 155 151 148 146 139 135 134 136 140 142 145 142 141 139 135 132 130 128 127 125
222 234 239 238 241 245 239 236 235 240 242 240 235 243 255 172 169 166 165 168 169 178 179 176 172 171 171 167 161 157 151 146 143 139 135 142 150 149 151 143 139 140 139 137 135 131 130 132 130
217 235 240 244 249 251 245 239 236 234 235 235 236 241 236 182 179 179 179 176 177 185 184 185 178 173 171 167 165 165 161 157 159 154 154 158 155 153 148 135 137 137 137 138 135 134 144 164 156
226 241 249 252 257 256 253 248 240 235 235 233 233 236 215 196 192 191 187 184 182 183 185 191 185 176 173 170 168 166 165 164 164 159 161 157 153 152 154 154 152 153 157 158 150 166 171 177 170
243 249 250 253 260 257 254 254 247 237 240 244 240 238 215 203 202 200 191 188 183 183 190 191 189 181 178 173 171 169 168 168 166 165 164 162 161 164 163 166 165 168 171 171 179 185 177 182 185
241 254 255 253 257 260 258 252 249 248 248 249 240 222 219 209 207 206 199 190 185 190 193 190 186 183 180 176 172 174 172 171 170 169 172 171 169 170 170 170 173 179 176 179 184 189 184 189 193
251 254 263 263 258 259 255 255 248 248 248 240 229 219 219 212 203 199 198 195 194 195 195 187 188 185 179 179 177 177 174 172 172 175 179 180 178 176 176 176 180 182 184 185 189 191 192 198 207
254 260 259 253 250 251 255 251 242 245 249 235 227 227 221 211 202 200 197 199 199 197 197 190 190 185 182 184 183 180 178 176 178 180 183 185 185 183 182 183 184 185 185 187 193 191 202 209 215
239 247 250 242 240 233 226 247 241 244 239 233 223 223 221 214 207 201 197 200 198 200 198 192 192 187 183 184 184 182 183 181 183 184 186 190 191 190 188 188 190 187 186 191 194 199 204 210 221
220 240 247 253 235 226 222 250 248 251 238 232 221 219 221 216 207 202 196 195 199 206 205 201 197 193 187 185 187 183 183 187 185 185 188 192 193 192 193 195 191 187 191 197 197 206 210 215 224
226 239 246 242 225 219 230 248 253 248 241 235 221 216 216 214 208 200 199 195 194 207 211 206 204 201 193 184 183 182 186 190 189 190 194 194 193 194 196 196 196 191 193 198 201 204 210 222 227
251 253 250 255 255 246 242 251 252 251 245 236 219 209 209 209 199 191 195 200 192 204 211 208 205 201 195 188 186 189 193 191 191 194 200 200 197 195 197 195 196 196 201 203 203 203 205 209 217
238 243 247 260 245 241 251 259 256 251 245 236 221 209 204 193 189 184 183 188 194 208 215 209 209 209 201 198 193 194 190 192 195 196 202 203 202 199 200 200 197 196 200 201 200 200 205 199 204
230 235 236 237 269 252 254 267 248 240 237 236 232 221 211 197 188 181 176 185 193 204 212 210 212 214 208 203 193 180 175 182 192 196 201 205 206 204 201 202 198 195 196 198 200 203 207 204 200
234 234 233 227 223 226 227 260 249 229 226 227 232 223 215 204 194 186 182 186 196 207 211 214 210 209 206 201 200 198 200 207 205 201 197 198 206 205 202 199 200 196 196 197 196 204 211 207 199
226 220 214 217 220 245 243 244 279 199 220 232 236 227 217 210 194 179 175 181 188 191 199 206 205 206 204 202 203 207 211 211 201 193 192 193 197 199 193 191 191 195 192 191 190 193 196 203 208
188 148 158 193 224 241 259 230 87 45 298 279 250 228 212 207 184 164 146 152 165 169 183 193 195 199 199 198 202 206 208 200 194 193 194 195 194 192 187 181 180 183 184 182 186 186 188 195 201
179 169 157 161 184 220 331 223 36 7 348 321 299 255 178 165 147 118 99 110 129 144 157 173 177 187 188 190 201 205 208 205 203 197 198 194 192 192 189 180 175 176 177 171 172 180 186 193 197
183 258 296 162 158 133 153 113 28 14 11 17 39 72 90 93 90 80 71 66 70 84 103 145 170 174 177 183 192 196 203 205 205 201 196 196 194 192 185 179 176 174 168 164 170 174 180 188 193
182 235 304 359 106 117 115 78 56 25 30 40 56 66 69 73 73 69 57 49 41 44 51 91 141 147 149 161 171 182 192 197 198 194 193 194 191 182 179 178 173 172 168 170 171 175 178 180 186
277 291 267 281 128 106 106 67 16 0 11 29 46 56 62 63 61 60 55 50 44 44 46 57 80 110 118 137 152 172 184 190 190 186 191 190 185 179 177 176 173 173 172 173 174 171 175 179 181
9 42 352 39 356 41 119 76 12 349 8 40 49 50 54 56 55 52 52 50 46 45 47 50 54 63 70 81 120 152 159 172 177 183 184 184 181 180 179 174 172 173 173 173 173 172 170 176 176
320 352 329 354 47 21 85 69 19 34 58 68 66 61 58 57 56 55 54 52 46 43 40 40 44 48 45 40 48 75 105 155 174 181 180 178 177 177 175 171 170 173 174 174 174 170 175 179 178
Height
1510 1512 1514 1517 1516 1505 1490 1486 1486 1489 1491 1494 1495 1494 1492 1492 1495 1498 1498 1497 1499 1502 1506 1509 1513 1516 1518 1520 1522 1523 1525 1526 1528 1530 1533 1535 1537 1539 1541 1543 1544 1546 1547 1548 1549 1549 1550 1551 1551
1509 1511 1514 1514 1505 1495 1484 1484 1487 1490 1492 1494 1495 1494 1493 1493 1495 1496 1495 1496 1499 1503 1506 1509 1512 1516 1518 1520 1522 1524 1525 1527 1528 1530 1533 1535 1538 1540 1542 1544 1545 1547 1548 1549 1550 1551 1552 1553 1553
1508 1509 1512 1506 1496 1484 1481 1481 1485 1490 1492 1493 1492 1492 1492 1493 1495 1495 1494 1496 1500 1504 1507 1509 1512 1515 1518 1520 1522 1524 1525 1527 1529 1531 1533 1536 1538 1541 1543 1545 1546 1548 1549 1550 1552 1553 1554 1555 1555
1507 1509 1508 1501 1487 1480 1480 1481 1486 1488 1490 1491 1491 1491 1492 1493 1493 1494 1494 1496 1500 1504 1507 1509 1512 1515 1518 1520 1522 1524 1526 1528 1530 1532 1534 1536 1539 1541 1544 1546 1547 1549 1550 1552 1553 1554 1555 1556 1557
1505 1505 1501 1492 1484 1481 1480 1483 1486 1486 1487 1488 1489 1488 1489 1491 1491 1492 1494 1496 1500 1504 1507 1509 1512 1515 1518 1520 1522 1524 1526 1528 1530 1532 1535 1537 1539 1542 1544 1546 1548 1550 1552 1553 1555 1556 1557 1558 1558
1504 1501 1494 1485 1480 1479 1480 1484 1486 1485 1485 1486 1487 1486 1487 1489 1489 1492 1493 1496 1500 1504 1507 1509 1512 1515 1518 1520 1522 1524 1526 1528 1531 1533 1535 1538 1540 1542 1545 1547 1549 1551 1553 1554 1555 1557 1558 1559 1559
1501 1496 1486 1481 1478 1476 1478 1483 1484 1483 1482 1484 1486 1485 1485 1487 1488 1491 1493 1496 1499 1503 1506 1509 1512 1515 1517 1520 1522 1524 1526 1528 1531 1533 1535 1538 1541 1543 1545 1548 1550 1552 1553 1555 1556 1557 1559 1559 1560
1498 1495 1486 1480 1477 1475 1477 1480 1481 1481 1480 1483 1485 1484 1483 1486 1487 1489 1492 1494 1497 1501 1505 1508 1511 1514 1517 1519 1522 1524 1527 1528 1531 1533 1536 1538 1541 1543 1546 1548 1550 1552 1554 1555 1557 1558 1559 1560 1561
1496 1494 1483 1478 1476 1475 1477 1478 1479 1480 1480 1480 1482 1482 1483 1484 1485 1488 1490 1493 1495 1499 1503 1507 1510 1513 1516 1519 1521 1524 1526 1528 1531 1533 1535 1538 1541 1543 1546 1548 1550 1552 1554 1555 1557 1558 1559 1560 1561
1492 1486 1479 1477 1476 1476 1476 1476 1476 1477 1476 1477 1479 1480 1481 1482 1483 1485 1487 1489 1493 1496 1501 1505 1509 1511 1514 1517 1520 1523 1525 1528 1530 1533 1535 1538 1540 1543 1545 1547 1550 1552 1554 1555 1557 1558 1559 1560 1561
1486 1481 1478 1478 1479 1478 1477 1475 1475 1474 1473 1474 1476 1477 1479 1480 1481 1483 1484 1486 1489 1493 1497 1502 1507 1509 1512 1515 1518 1521 1524 1527 1530 1532 1534 1537 1539 1542 1545 1547 1549 1551 1553 1555 1556 1557 1559 1559 1560
1484 1480 1479 1479 1479 1478 1477 1475 1474 1472 1471 1472 1473 1475 1475 1477 1479 1480 1482 1484 1487 1491 1495 1499 1503 1507 1510 1513 1517 1520 1522 1525 1528 1531 1534 1536 1539 1541 1544 1546 1548 1550 1552 1554 1555 1557 1558 1558 1559
1481 1478 1478 1477 1477 1476 1475 1473 1472 1469 1469 1470 1471 1472 1473 1474 1477 1478 1480 1482 1484 1488 1492 1497 1499 1504 1508 1511 1514 1518 1521 1524 1527 1530 1533 1535 1538 1540 1543 1545 1547 1549 1551 1553 1554 1556 1557 1558 1558
1478 1477 1476 1475 1474 1473 1473 1470 1469 1466 1468 1468 1468 1469 1471 1472 1473 1475 1478 1479 1482 1485 1490 1494 1497 1501 1505 1509 1512 1516 1519 1522 1525 1528 1531 1534 1537 1539 1542 1544 1546 1548 1550 1551 1553 1554 1555 1556 1557
1478 1476 1472 1471 1471 1470 1471 1467 1464 1463 1465 1465 1465 1467 1468 1469 1470 1471 1474 1477 1480 1483 1487 1490 1494 1498 1502 1506 1510 1514 1517 1520 1523 1526 1529 1532 1535 1537 1540 1542 1544 1546 1548 1550 1551 1552 1553 1554 1555
1475 1472 1467 1464 1466 1466 1471 1461 1458 1460 1462 1461 1462 1463 1465 1466 1468 1469 1472 1475 1478 1481 1484 1488 1492 1496 1500 1504 1507 1511 1515 1518 1521 1524 1527 1530 1533 1535 1538 1540 1542 1544 1546 1548 1549 1550 1552 1553 1553
1471 1467 1463 1462 1462 1462 1463 1457 1457 1457 1459 1459 1459 1460 1462 1463 1465 1467 1470 1472 1475 1479 1482 1486 1489 1493 1497 1501 1505 1509 1512 1516 1519 1522 1525 1528 1530 1533 1535 1538 1540 1542 1544 1545 1547 1548 1550 1551 1551
1465 1463 1461 1460 1459 1460 1459 1456 1455 1456 1456 1455 1455 1457 1459 1460 1463 1465 1467 1470 1473 1476 1480 1483 1487 1490 1494 1498 1502 1506 1509 1513 1516 1518 1522 1525 1528 1530 1533 1535 1537 1539 1541 1543 1544 1546 1547 1548 1549
1467 1464 1460 1458 1459 1459 1457 1454 1452 1452 1453 1452 1453 1453 1455 1458 1460 1463 1465 1467 1470 1473 1476 1480 1483 1487 1491 1494 1498 1502 1505 1509 1512 1515 1519 1522 1525 1527 1530 1532 1534 1536 1538 1540 1541 1543 1544 1545 1546
1467 1464 1461 1458 1458 1458 1454 1451 1449 1449 1450 1450 1450 1452 1453 1455 1458 1461 1463 1465 1467 1469 1473 1476 1480 1483 1487 1491 1495 1498 1502 1505 1508 1511 1515 1518 1521 1524 1526 1528 1530 1532 1534 1536 1538 1540 1541 1542 1543
1464 1462 1458 1458 1457 1455 1453 1448 1444 1444 1447 1448 1448 1450 1451 1453 1455 1458 1460 1463 1465 1467 1470 1473 1477 1480 1483 1487 1490 1494 1498 1501 1505 1508 1511 1514 1517 1520 1522 1524 1526 1528 1530 1532 1534 1536 1538 1538 1539
1461 1458 1458 1458 1458 1453 1452 1447 1440 1440 1442 1444 1446 1448 1449 1451 1453 1455 1457 1460 1463 1465 1468 1471 1473 1477 1480 1482 1485 1489 1493 1496 1500 1504 1507 1510 1513 1515 1517 1520 1522 1524 1526 1528 1530 1532 1534 1535 1535
1458 1458 1458 1458 1457 1454 1450 1447 1440 1439 1440 1442 1444 1446 1447 1449 1452 1453 1455 1458 1461 1463 1466 1468 1471 1474 1477 1479 1483 1487 1490 1493 1496 1500 1503 1505 1508 1510 1512 1515 1517 1519 1521 1523 1526 1528 1529 1531 1531
1459 1460 1459 1458 1455 1454 1448 1445 1441 1440 1442 1442 1443 1445 1446 1448 1450 1451 1453 1456 1458 1461 1464 1466 1468 1471 1474 1477 1480 1483 1486 1489 1492 1494 1497 1500 1502 1505 1506 1509 1512 1514 1516 1519 1522 1524 1525 1526 1527
1460 1458 1455 1455 1453 1449 1448 1446 1444 1444 1445 1445 1444 1445 1446 1447 1449 1450 1452 1455 1457 1459 1461 1464 1466 1469 1472 1475 1478 1480 1482 1485 1488 1490 1492 1495 1497 1499 1501 1504 1506 1509 1512 1514 1517 1519 1520 1521 1522
1459 1457 1451 1447 1445 1446 1449 1446 1446 1448 1448 1447 1446 1446 1446 1448 1449 1450 1452 1455 1456 1458 1460 1462 1464 1467 1470 1472 1474 1477 1479 1481 1483 1486 1487 1490 1492 1494 1497 1499 1501 1504 1506 1509 1512 1514 1515 1517 1518
1458 1456 1455 1449 1445 1444 1446 1447 1447 1448 1448 1448 1448 1448 1448 1449 1450 1452 1453 1455 1456 1457 1459 1461 1463 1465 1467 1470 1472 1474 1476 1478 1480 1481 1483 1485 1488 1490 1492 1494 1496 1499 1502 1505 1507 1509 1510 1511 1513
1459 1456 1454 1450 1446 1443 1446 1447 1449 1451 1452 1452 1452 1451 1452 1452 1453 1453 1455 1455 1457 1458 1460 1461 1462 1464 1465 1468 1470 1472 1474 1475 1476 1477 1479 1482 1484 1486 1488 1490 1492 1495 1497 1500 1502 1503 1505 1507 1507
1458 1457 1454 1450 1448 1442 1444 1452 1458 1458 1458 1457 1457 1456 1455 1455 1454 1455 1456 1457 1458 1458 1459 1460 1461 1463 1464 1466 1468 1469 1470 1472 1473 1474 1476 1478 1480 1481 1483 1485 1487 1490 1492 1495 1496 1498 1500 1501 1502
1459 1457 1454 1450 1453 1449 1444 1460 1462 1461 1462 1461 1461 1460 1459 1458 1457 1457 1457 1458 1459 1459 1460 1460 1461 1462 1463 1464 1466 1467 1468 1469 1470 1471 1473 1474 1475 1477 1479 1481 1483 1485 1488 1490 1492 1493 1495 1496 1497